[[{"header":{"parameterUnit":"m.s-1","parameterCategory":1,"la1":30.2991,"la2":30.254,"lo1":-89.0895,"lo2":-89.0444,"dy":0.0017,"dx":0.0017,"nx":28,"ny":28,"refTime":"2025-02-12T09:00:00:Z","depth":0,"parameterNumber":2,"parameterNumberName":"U-component_of_WINDS"},"data":[0,0,0,0,0,0,0,0,0,0,0,0,0,0,0,0,0,0,0,0,0,0,0,0,0,0,0,0,0,0,0,0,0,0,0,0,0,0,0,0,0,0,0,0,0,0,0,0,0,0,0,0,0,0,0,0,0,0,3.4851,3.485,0,3.4767,3.4766,3.4765,3.4667,3.4665,3.4664,3.4662,3.4577,3.4576,3.4576,0,0,0,0,0,0,0,0,0,0,0,0,0,3.4929,3.4928,3.4851,3.485,3.4849,3.4767,3.4766,3.4765,3.4667,3.4665,3.4663,3.4661,3.4578,3.4577,3.4576,0,0,0,0,0,0,0,0,0,0,0,0,0,3.4875,3.4928,3.4851,3.479,3.4784,3.4767,3.4766,3.4765,3.4667,3.4665,3.4663,3.4661,3.4578,3.4577,3.4575,3.4613,0,0,3.4571,3.4571,0,0,0,0,0,0,0,0,3.4878,3.4872,3.48,3.4794,3.4787,3.4725,3.4762,3.4714,3.4668,3.4712,3.4662,3.4659,3.4628,3.4623,3.4612,3.4609,3.4605,3.4571,3.4571,3.457,3.457,0,0,0,0,0,0,0,3.4882,3.4876,3.4818,3.4799,3.4791,3.4768,3.4758,3.4753,3.4684,3.4708,3.47,3.4692,3.4624,3.4613,3.4609,3.4604,3.4571,3.457,3.4569,3.4569,3.4629,3.4631,0,0,0,0,0,0,3.4895,3.4879,3.4821,3.4815,3.4828,3.4768,3.4757,3.4747,3.4683,3.4672,3.4694,3.4687,3.4617,3.4611,3.4606,3.4646,3.457,3.4569,3.4568,3.4627,3.4629,3.4632,0,0,0,0,0,0,3.4897,3.4891,3.4824,3.4845,3.4835,3.4769,3.4759,3.4747,3.4736,3.4673,3.466,3.4695,3.4615,3.4608,3.4612,3.4642,3.4568,3.4567,3.4624,3.4627,3.4631,3.4727,0,0,0,0,0,0,3.49,3.4892,3.4905,3.4846,3.4834,3.4831,3.4761,3.4747,3.4734,3.4725,3.4671,3.466,3.4612,3.4615,3.4611,3.4639,3.4566,3.4621,3.4625,3.463,3.4721,3.4734,3.4745,0,0,0,0,0,3.4903,3.4935,3.4906,3.4899,3.4849,3.4833,3.4826,3.4771,3.4736,3.4749,3.4709,3.4661,3.464,3.4616,3.4611,3.4639,3.4619,3.4624,3.4629,3.4716,3.4731,3.4744,0,0,0,0,0,0,3.4999,3.4926,3.4893,3.4907,3.4877,3.4816,3.4831,3.4788,3.4767,3.476,3.4692,3.4681,3.4694,3.4667,3.4642,3.4673,3.4622,3.4627,3.469,3.4704,3.4715,3.4722,3.4565,0,0,0,0,0,3.5021,3.5014,3.4951,3.497,3.4957,3.4897,3.4888,3.4848,3.4814,3.4801,3.4761,3.473,3.4716,3.4709,3.4692,3.4717,3.4705,3.4734,3.4746,3.4756,3.4761,3.4773,3.4786,3.4649,3.4649,3.4649,0,0,3.5068,3.5028,3.5027,3.4989,3.496,3.4955,3.4887,3.4883,3.4879,3.48,3.4802,3.4772,3.4733,3.4749,3.4753,3.4726,3.4796,3.4763,3.4771,3.477,3.478,3.4793,3.4804,3.4653,3.4652,3.4652,0,0,3.5152,3.512,3.5133,3.5106,3.5065,3.5025,3.5028,3.4974,3.4951,3.4952,3.4893,3.4888,3.4865,3.484,3.4825,3.4901,3.4857,3.4898,3.4959,3.4972,3.4983,3.4992,3.502,3.5031,3.4903,3.4903,3.4903,0,3.5215,3.5204,3.5145,3.5146,3.5131,3.506,3.5073,3.505,3.5006,3.4998,3.4968,3.494,3.4908,3.4918,3.4937,3.4926,3.4929,3.4904,3.4986,3.4995,3.5002,3.5029,3.5039,3.4909,3.4908,3.4907,3.4907,0,3.5286,3.5279,3.5295,3.5254,3.5241,3.5249,3.5191,3.5185,3.5147,3.5111,3.5114,3.5074,3.5049,3.5049,3.5011,3.5053,3.5038,3.4998,3.4946,3.5022,3.5045,3.5055,3.4916,3.4914,3.4913,3.4911,0,0,3.5425,3.5353,3.536,3.5341,3.5291,3.5285,3.529,3.5266,3.5263,3.5235,3.5238,3.5222,3.5186,3.5168,3.5128,3.5139,3.5204,3.5098,3.5096,3.512,3.5249,3.5279,3.5292,3.5174,3.5176,3.5177,3.5252,0,3.55,3.5503,3.5451,3.5469,3.5464,3.5397,3.5401,3.5372,3.5339,3.533,3.5293,3.5283,3.5235,3.5224,3.5232,3.5194,3.5229,3.5188,3.5177,3.5177,3.5189,3.5304,3.5335,3.5408,3.5261,3.5263,3.5264,0,3.5587,3.5565,3.5583,3.5534,3.5529,3.5534,3.5509,3.55,3.5466,3.5441,3.5423,3.5377,3.538,3.5331,3.5334,3.5307,3.53,3.5281,3.5282,3.5279,3.5225,3.5304,3.543,3.5441,3.5277,3.5276,3.5275,0,3.5688,3.5663,3.5671,3.5657,3.5599,3.5605,3.5581,3.5545,3.5534,3.5512,3.5505,3.5484,3.5472,3.5457,3.5407,3.5376,3.5417,3.5363,3.5397,3.5398,3.5408,3.5408,3.5535,3.5403,3.5403,3.5403,3.5403,0,3.5777,3.5791,3.5716,3.5721,3.5735,3.5675,3.5691,3.5661,3.563,3.5628,3.5569,3.5569,3.5503,3.5496,3.5457,3.5466,3.5461,3.5442,3.5431,3.5447,3.545,3.5441,3.5435,3.5406,3.5405,3.5405,3.5404,0,3.5892,3.5842,3.5847,3.5793,3.578,3.5793,3.5746,3.5749,3.5713,3.5712,3.5709,3.5652,3.5641,3.559,3.5566,3.554,3.5563,3.5542,3.5574,3.5568,3.5604,3.5602,3.573,3.5744,3.5604,3.5606,3.5607,0,3.5952,3.5962,3.5909,3.5904,3.5883,3.5875,3.5865,3.5807,3.5798,3.5761,3.5769,3.5753,3.5737,3.5723,3.568,3.5662,3.5641,3.5687,3.5637,3.5654,3.5642,3.5642,3.5643,3.5698,3.5699,3.5701,3.5702,0,3.6064,3.604,3.6026,3.6005,3.5994,3.5975,3.5951,3.5951,3.5887,3.588,3.5868,3.5856,3.5833,3.5819,3.5794,3.577,3.5726,3.5718,3.5725,3.5741,3.576,3.5751,3.5604,3.5715,3.5714,3.5713,3.5712,3.5712,3.6154,3.616,3.6124,3.6112,3.6088,3.6069,3.6069,3.6034,3.6023,3.5999,3.5966,3.5959,3.5926,3.5888,3.5868,3.5862,3.5837,3.5847,3.585,3.5853,3.5861,3.5761,3.5858,3.5857,3.5857,3.5856,3.5856,0,3.6263,3.6238,3.6227,3.6197,3.6188,3.6147,3.612,3.6115,3.611,3.6083,3.6069,3.6056,3.6042,3.5999,3.5981,3.5985,3.5964,3.5982,3.5981,3.5976,3.5885,3.5881,3.5999,3.5999,3.5999,3.5999,3.5999,3.5999,3.6319,3.6327,3.6299,3.6296,3.6269,3.6262,3.625,3.6232,3.621,3.6199,3.6187,3.6159,3.6126,3.6105,3.6091,3.6079,3.6075,3.61,3.6081,3.5996,3.5983,3.597,3.5965,3.6099,3.61,3.6173,3.6174,3.6174]},{"header":{"parameterUnit":"m.s-1","parameterCategory":1,"la1":30.2991,"la2":30.254,"lo1":-89.0895,"lo2":-89.0444,"dy":0.0017,"dx":0.0017,"nx":28,"ny":28,"refTime":"2025-02-12T09:00:00:Z","depth":0,"parameterNumber":3,"parameterNumberName":"V-component_of_WINDS"},"data":[0,0,0,0,0,0,0,0,0,0,0,0,0,0,0,0,0,0,0,0,0,0,0,0,0,0,0,0,0,0,0,0,0,0,0,0,0,0,0,0,0,0,0,0,0,0,0,0,0,0,0,0,0,0,0,0,0,0,4.026,4.0265,0,4.0802,4.0808,4.0814,4.0921,4.0916,4.0912,4.0908,4.1465,4.1483,4.1502,0,0,0,0,0,0,0,0,0,0,0,0,0,3.9314,3.9331,4.0259,4.0266,4.0273,4.0801,4.0808,4.0815,4.0921,4.0916,4.0911,4.0906,4.1459,4.1481,4.1504,0,0,0,0,0,0,0,0,0,0,0,0,0,3.9777,3.9336,4.0258,4.0389,4.0406,4.0799,4.0808,4.0817,4.0922,4.0916,4.091,4.0904,4.1452,4.1479,4.1507,4.1808,0,0,4.1593,4.1605,0,0,0,0,0,0,0,0,3.975,3.9811,4.0363,4.0381,4.0401,4.0787,4.0679,4.115,4.0924,4.0727,4.0908,4.0901,4.1245,4.129,4.1405,4.1834,4.1858,4.1595,4.1612,4.1625,4.1633,0,0,0,0,0,0,0,3.9718,3.9789,4.0474,4.0371,4.0394,4.042,4.0479,4.0769,4.1015,4.0743,4.0752,4.0815,4.1254,4.1378,4.1419,4.1866,4.1595,4.162,4.1637,4.1648,4.2565,4.2572,0,0,0,0,0,0,3.9663,3.9761,4.0457,4.049,4.0053,4.0442,4.0508,4.0669,4.1012,4.1058,4.082,4.0818,4.1333,4.1386,4.1439,4.1813,4.1624,4.1651,4.1667,4.2557,4.2566,4.2574,0,0,0,0,0,0,3.9642,3.9724,4.0435,4.0129,4.0221,4.0465,4.0646,4.0683,4.0808,4.107,4.1114,4.0901,4.133,4.1399,4.1714,4.1834,4.1663,4.1689,4.2548,4.256,4.257,4.2562,0,0,0,0,0,0,3.9615,3.9716,3.9834,4.013,4.0237,4.0702,4.0653,4.0699,4.0856,4.0858,4.1158,4.1202,4.133,4.1672,4.1742,4.1869,4.1711,4.2539,4.2554,4.2567,4.2553,4.2572,4.2588,0,0,0,0,0,3.9581,3.9811,3.9839,3.9923,4.0389,4.0708,4.0769,4.0912,4.0865,4.0985,4.1152,4.1192,4.1808,4.1703,4.1784,4.1921,4.2532,4.2549,4.2566,4.2545,4.2568,4.2588,0,0,0,0,0,0,3.9525,3.9853,3.9888,4.0221,4.0436,4.0726,4.0882,4.0932,4.1166,4.1159,4.1326,4.1393,4.1698,4.1841,4.1718,4.2228,4.2167,4.2201,4.2124,4.2148,4.2165,4.2125,4.1734,0,0,0,0,0,3.955,3.9782,4.0056,4.0324,4.043,4.0636,4.0781,4.0872,4.1102,4.1193,4.1384,4.1605,4.1849,4.2006,4.2244,4.2573,4.2639,4.2706,4.2723,4.2736,4.2764,4.2946,4.2979,4.2629,4.2629,4.2629,0,0,3.9608,3.9815,3.9952,4.0318,4.0495,4.0731,4.0713,4.0964,4.114,4.1232,4.1541,4.1687,4.1945,4.2267,4.2419,4.2396,4.2874,4.2758,4.2766,4.2788,4.2966,4.2999,4.3028,4.2641,4.2639,4.2637,0,0,3.9832,4.0013,4.0255,4.0431,4.0699,4.0834,4.0891,4.1174,4.1274,4.1586,4.1658,4.1869,4.2286,4.2466,4.2611,4.2897,4.2942,4.2969,4.3062,4.3237,4.3264,4.3289,4.3391,4.3425,4.2996,4.2996,4.2996,0,3.987,4.0229,4.0373,4.062,4.0778,4.0868,4.1114,4.1278,4.161,4.1716,4.1685,4.2206,4.2386,4.275,4.2819,4.2934,4.3004,4.2938,4.3248,4.3275,4.3301,4.3399,4.3437,4.2997,4.2997,4.2997,4.2997,0,4.0261,4.0508,4.0671,4.0987,4.1162,4.1407,4.1587,4.1747,4.1821,4.1958,4.2272,4.249,4.2773,4.2866,4.2941,4.324,4.3217,4.3215,4.3158,4.3333,4.3429,4.3468,4.3,4.2999,4.2999,4.2998,0,0,4.0471,4.0859,4.0917,4.106,4.1359,4.1552,4.1799,4.2074,4.2208,4.2431,4.2642,4.2989,4.2987,4.3152,4.3248,4.3401,4.3611,4.338,4.3389,4.3416,4.3952,4.3953,4.3995,4.3641,4.3649,4.3655,4.393,0,4.0732,4.1177,4.1311,4.1684,4.1912,4.1998,4.2213,4.2418,4.2552,4.2765,4.2912,4.3155,4.3135,4.3234,4.339,4.3553,4.3721,4.3534,4.3839,4.3848,4.3774,4.4045,4.4048,4.4298,4.3969,4.3975,4.398,0,4.1098,4.1326,4.1721,4.1987,4.2088,4.2279,4.2539,4.2742,4.2975,4.3061,4.3242,4.3323,4.3582,4.3507,4.3865,4.3735,4.3866,4.3964,4.3978,4.4014,4.3926,4.4089,4.4382,4.4419,4.404,4.4035,4.4031,0,4.1211,4.1617,4.1905,4.2025,4.2342,4.2474,4.2612,4.2839,4.2994,4.3221,4.3323,4.3577,4.3717,4.3911,4.4058,4.399,4.4403,4.4341,4.4482,4.4478,4.4568,4.4561,4.4887,4.4649,4.4648,4.4648,4.4647,0,4.1491,4.1729,4.196,4.2137,4.2405,4.2555,4.2816,4.2959,4.3159,4.3364,4.3453,4.3644,4.3825,4.4039,4.4155,4.4433,4.4496,4.4572,4.46,4.4566,4.4556,4.4656,4.4644,4.4658,4.4656,4.4654,4.4652,0,4.1665,4.1829,4.2149,4.2421,4.2495,4.268,4.2914,4.3088,4.3222,4.348,4.3549,4.3761,4.4017,4.4181,4.4508,4.4585,4.489,4.4913,4.4811,4.4825,4.4957,4.4942,4.5361,4.5423,4.5141,4.5143,4.5145,0,4.1833,4.2018,4.2309,4.2452,4.2591,4.2821,4.2979,4.3132,4.3292,4.3569,4.3709,4.397,4.4189,4.4593,4.4775,4.5024,4.5055,4.5183,4.5093,4.5051,4.5057,4.5045,4.5064,4.5199,4.5201,4.5203,4.5205,0,4.2114,4.2185,4.2409,4.2661,4.2846,4.3053,4.3258,4.337,4.3558,4.3733,4.3995,4.4163,4.4495,4.4753,4.5017,4.5159,4.5214,4.5231,4.5277,4.5245,4.5179,4.5216,4.4853,4.5222,4.522,4.5219,4.5218,4.5217,4.2292,4.2459,4.2689,4.2935,4.3105,4.3294,4.347,4.3624,4.3846,4.4127,4.4203,4.4476,4.47,4.5061,4.5206,4.5422,4.5406,4.5472,4.549,4.5504,4.5506,4.5141,4.547,4.547,4.547,4.5469,4.5469,0,4.2578,4.2729,4.2953,4.3237,4.3429,4.3461,4.3688,4.3847,4.4087,4.4291,4.4502,4.4801,4.505,4.5249,4.5505,4.5639,4.567,4.5701,4.5694,4.5725,4.5506,4.5441,4.5671,4.5671,4.5671,4.5671,4.5671,4.5671,4.275,4.3034,4.3131,4.3499,4.3648,4.3916,4.4043,4.4217,4.4381,4.471,4.4917,4.5044,4.5247,4.5517,4.5746,4.5798,4.5888,4.5914,4.5971,4.5763,4.5741,4.572,4.566,4.5932,4.5933,4.6174,4.6176,4.6177]}]]